Flag for Germany Weather past 2 weeks in Rietberg, North Rhine-Westphalia, Germany

Now
70 °F

Sunny.


Feels Like: 70 °F
Forecast: 60 / 84 °F
Wind: 8 mph from South

Location: Paderborn / Lippstadt

Current Time: Aug 3, 2015 at 8:40:45 AM

Latest Report: Aug 3, 2015 at 8:20 AM


Visibility: 10 mi

Pressure: 30.04 "Hg

Humidity: 46%

Dew point: 48 °F

Location of RietbergLocation

Historic Weather in Rietberg — Graph

°F

Rietberg temperature yesterday

Maximum temperature yesterday: 75 °F (at 4:50 PM)
Minimum temperature yesterday: 50 °F (at 4:50 AM)
Average temperature yesterday: 63 °F

Past Weeks' High & Low Weather Summary

 TemperatureHumidityPressure
High77 °F (Jul 21, 4:20 PM)100% (Jul 19, 7:50 AM)30.18 "Hg (Jul 19, 7:50 AM)
Low43 °F (Jul 31, 6:20 AM)33% (Aug 1, 4:20 PM)29.53 "Hg (Jul 25, 9:50 AM)
Average61 °F70%29.90 "Hg
* Reported Jul 19 7:20 AM — Aug 3 7:20 AM, Rietberg, Weather by CustomWeather, © 2015

Note: Actual official high and low records may vary slightly from our data, if they occured in-between our weather recording intervals... More about our weather records

Advertising

Rietberg weather history for previous 24 hours

 ConditionsComfort  
Time TempWeatherWind HumidityBarometerVisibility
7:20 AM
Mon, Aug 3
66 °FSunny.9 mph49%30.04 "Hg10 mi
6:50 AM66 °FClear.12 mph46%30.04 "Hg10 mi
5:50 AM66 °FPassing clouds.12 mph46%30.04 "HgN/A
5:20 AM66 °FClear.12 mph46%30.04 "Hg10 mi
4:50 AM64 °FClear.9 mph49%30.04 "Hg10 mi
4:20 AM64 °FClear.9 mph52%30.07 "Hg10 mi
3:50 AM63 °FClear.5 mph52%30.07 "Hg10 mi
3:20 AM63 °FClear.6 mph52%30.07 "Hg10 mi
2:50 AM63 °FClear.6 mph52%30.07 "Hg10 mi
2:20 AM64 °FClear.7 mph49%30.07 "Hg10 mi
1:50 AM64 °FPassing clouds.6 mph46%30.07 "HgN/A
1:20 AM63 °FPassing clouds.5 mph49%30.09 "HgN/A
12:50 AM63 °FClear.2 mph52%30.09 "Hg10 mi
12:20 AM61 °FClear.2 mph59%30.09 "Hg10 mi
11:50 PM
Sun, Aug 2
61 °FClear.6 mph63%30.09 "Hg10 mi
11:20 PM63 °FClear.6 mph56%30.09 "Hg10 mi
10:50 PM61 °FClear.6 mph63%30.09 "Hg10 mi
10:20 PM63 °FClear.3 mph59%30.09 "Hg10 mi
9:50 PM64 °FSunny.3 mph56%30.09 "Hg10 mi
9:20 PM68 °FPassing clouds.5 mph49%30.09 "HgN/A
8:50 PM70 °FSunny.3 mph43%30.09 "Hg10 mi
8:20 PM72 °FSunny.2 mph38%30.09 "Hg10 mi
7:50 PM72 °FSunny.2 mph38%30.09 "Hg10 mi
7:20 PM72 °FPassing clouds.3 mph38%30.09 "HgN/A
6:50 PM73 °FPassing clouds.3 mph38%30.09 "HgN/A
6:20 PM73 °FSunny.3 mph38%30.09 "Hg10 mi
5:50 PM73 °FPassing clouds.5 mph38%30.12 "HgN/A
5:20 PM73 °FPassing clouds.6 mph33%30.12 "HgN/A
4:50 PM75 °FSunny.5 mph34%30.12 "Hg10 mi
4:20 PM73 °FSunny.5 mph36%30.12 "Hg10 mi
3:50 PM73 °FSunny.5 mph36%30.12 "Hg10 mi
3:20 PM73 °FSunny.5 mph38%30.15 "Hg10 mi
2:50 PM72 °FPassing clouds.8 mph41%30.15 "HgN/A
2:20 PM72 °FPassing clouds.5 mph41%30.15 "HgN/A
1:50 PM70 °FPassing clouds.5 mph40%30.15 "HgN/A
1:20 PM70 °FSunny.6 mph43%30.15 "Hg10 mi
12:50 PM70 °FSunny.5 mph43%30.15 "Hg10 mi
12:20 PM68 °FSunny.5 mph46%30.18 "Hg10 mi
11:50 AM68 °FSunny.3 mph43%30.18 "Hg10 mi
11:20 AM66 °FSunny.5 mph46%30.15 "Hg10 mi
10:50 AM66 °FPassing clouds.3 mph43%30.15 "HgN/A
10:20 AM66 °FPassing clouds.3 mph49%30.15 "HgN/A
9:50 AM64 °FSunny.2 mph56%30.15 "Hg10 mi
9:20 AM61 °FSunny.1 mph63%30.15 "Hg10 mi
8:50 AM61 °FSunny.1 mph63%30.15 "Hg10 mi
8:20 AM57 °FSunny.1 mph72%30.15 "Hg10 mi
Weather by CustomWeather, © 2015

See weather overviewHow to use our weather pages